Weather History for Rice Lake, WI

Change the Weather History Date:

Monday, October 21, 2013

  Actual Average Record
Temperature  
Mean Temperature 33 °F -  
Max Temperature 35 °F 52 °F 69 °F (1999)
Min Temperature 31 °F 35 °F 23 °F (2011)
Degree Days  
Heating Degree Days 32    
Moisture  
Dew Point 26 °F    
Average Humidity 73    
Maximum Humidity 99    
Minimum Humidity 55    
Precipitation  
Precipitation 0.00 in - - ()
Sea Level Pressure  
Sea Level Pressure 29.88 in    
Wind  
Wind Speed 10 mph (West)    
Max Wind Speed 17 mph    
Max Gust Speed 24 mph    
Visibility 10 miles    
Events      
Averages and records for this station are not official NWS values.
T = Trace of Precipitation, MM = Missing Value Source: NWS Daily Summary

Daily Weather History Graph

Daily Weather History Graph

Search for Another Location

Airport:

Trip Planner

Search our weather history database for the weather conditions in past years. The results will help you decide how hot, cold, wet, or windy it might be!

Date:

Astronomy

Oct. 21, 2013 Rise Set
Actual Time 7:31 AM CDT 6:10 PM CDT
Civil Twilight 7:01 AM CDT 6:41 PM CDT
Nautical Twilight 6:27 AM CDT 7:15 PM CDT
Astronomical Twilight 5:52 AM CDT 7:49 PM CDT
Moon 7:56 PM CDT 10:13 AM CDT
Length of Visible Light 11h 39m
Length of Day
10h 39m
Waning Gibbous, 92% of the Moon is Illuminated
Oct 21
Waning Gibbous
Oct 26
Last Quarter
Nov 3
New
Nov 9
First Quarter
Nov 17
Full

Hourly Weather History & Observations

Time (CDT) Temp. Windchill Dew Point Humidity Pressure Visibility Wind Dir Wind Speed Gust Speed Precip Events Conditions
12:15 AM 34.3 °F 27.7 °F 33.8 °F 98% 29.81 in 10.0 mi West 8.1 mph - N/A   Overcast
12:35 AM 34.2 °F 26.2 °F 33.8 °F 99% 29.81 in 10.0 mi WNW 10.4 mph - N/A   Overcast
12:55 AM 34.3 °F 26.5 °F 33.8 °F 98% 29.81 in 10.0 mi West 10.4 mph - N/A   Overcast
1:15 AM 34.3 °F 27.7 °F 33.8 °F 98% 29.81 in 10.0 mi West 8.1 mph - N/A   Light Drizzle
1:35 AM 34.3 °F 27.0 °F 33.8 °F 98% 29.82 in 10.0 mi WNW 9.2 mph - N/A   Overcast
1:55 AM 34.5 °F 27.9 °F 34.0 °F 98% 29.83 in 10.0 mi West 8.1 mph - N/A   Overcast
2:15 AM 34.2 °F 27.5 °F 33.3 °F 97% 29.83 in 10.0 mi WNW 8.1 mph - N/A   Overcast
2:35 AM 34.0 °F 27.2 °F 32.0 °F 92% 29.84 in 10.0 mi WNW 8.1 mph - N/A   Overcast
2:55 AM 33.8 °F 27.0 °F 31.8 °F 92% 29.85 in 10.0 mi West 8.1 mph - N/A   Overcast
3:15 AM 33.8 °F 28.6 °F 31.8 °F 92% 29.85 in 10.0 mi West 5.8 mph 9.2 mph N/A   Overcast
3:35 AM 33.8 °F 26.4 °F 31.6 °F 92% 29.86 in 10.0 mi West 9.2 mph - N/A   Overcast
3:55 AM 33.8 °F 26.4 °F 30.9 °F 89% 29.86 in 10.0 mi West 9.2 mph - N/A   Overcast
4:15 AM 33.4 °F 24.8 °F 30.2 °F 88% 29.86 in 10.0 mi West 11.5 mph 16.1 mph N/A   Overcast
4:35 AM 33.3 °F 24.6 °F 29.5 °F 86% 29.87 in 10.0 mi West 11.5 mph - N/A   Overcast
4:55 AM 32.9 °F 24.1 °F 28.8 °F 85% 29.87 in 10.0 mi West 11.5 mph - N/A   Overcast
5:15 AM 32.4 °F 25.3 °F 27.5 °F 82% 29.87 in 10.0 mi WNW 8.1 mph - N/A   Overcast
5:35 AM 32.2 °F 23.8 °F 27.1 °F 82% 29.87 in 10.0 mi West 10.4 mph - N/A   Overcast
5:55 AM 32.0 °F 24.8 °F 27.0 °F 82% 29.87 in 10.0 mi West 8.1 mph - N/A   Overcast
6:15 AM 32.0 °F 24.8 °F 27.1 °F 82% 29.88 in 10.0 mi West 8.1 mph - N/A   Overcast
6:35 AM 32.0 °F 24.8 °F 27.0 °F 82% 29.88 in 10.0 mi West 8.1 mph - N/A   Overcast
6:55 AM 32.0 °F 24.2 °F 26.6 °F 80% 29.88 in 10.0 mi West 9.2 mph - N/A   Overcast
7:15 AM 32.0 °F 26.4 °F 26.2 °F 79% 29.88 in 10.0 mi West 5.8 mph - N/A   Overcast
7:35 AM 32.0 °F 26.4 °F 26.2 °F 79% 29.88 in 10.0 mi West 5.8 mph - N/A   Overcast
7:55 AM 31.8 °F 25.4 °F 26.2 °F 80% 29.89 in 10.0 mi West 6.9 mph - N/A   Overcast
8:15 AM 32.0 °F 24.2 °F 25.5 °F 77% 29.89 in 10.0 mi West 9.2 mph - N/A   Overcast
8:35 AM 32.0 °F 26.4 °F 24.4 °F 74% 29.89 in 10.0 mi West 5.8 mph - N/A   Overcast
8:55 AM 32.0 °F 24.8 °F 23.9 °F 72% 29.89 in 10.0 mi West 8.1 mph - N/A   Overcast
9:15 AM 32.0 °F 23.6 °F 23.7 °F 71% 29.90 in 10.0 mi West 10.4 mph - N/A   Overcast
9:35 AM 32.0 °F 23.0 °F 23.2 °F 70% 29.90 in 10.0 mi West 11.5 mph - N/A   Overcast
9:55 AM 32.0 °F 24.2 °F 23.7 °F 71% 29.91 in 10.0 mi West 9.2 mph - N/A   Overcast
10:15 AM 32.0 °F 23.0 °F 23.0 °F 69% 29.91 in 10.0 mi West 11.5 mph - N/A   Overcast
10:35 AM 32.4 °F 23.5 °F 22.8 °F 68% 29.91 in 10.0 mi West 11.5 mph 17.3 mph N/A   Overcast
10:55 AM 32.5 °F 24.8 °F 22.1 °F 65% 29.90 in 10.0 mi West 9.2 mph - N/A   Overcast
11:15 AM 33.1 °F 26.9 °F 23.0 °F 66% 29.90 in 10.0 mi West 6.9 mph - N/A   Overcast
11:35 AM 32.5 °F 22.7 °F 22.5 °F 66% 29.91 in 10.0 mi West 13.8 mph 18.4 mph N/A   Overcast
11:55 AM 32.4 °F 23.0 °F 23.4 °F 69% 29.90 in 10.0 mi West 12.7 mph 17.3 mph N/A   Overcast
12:15 PM 33.3 °F 24.1 °F 21.7 °F 63% 29.90 in 10.0 mi West 12.7 mph 18.4 mph N/A   Overcast
12:55 PM 34.3 °F 26.5 °F 20.1 °F 56% 29.89 in 10.0 mi West 10.4 mph 19.6 mph N/A   Overcast
1:15 PM 34.9 °F 27.1 °F 19.9 °F 55% 29.88 in 10.0 mi West 10.4 mph 20.7 mph N/A   Overcast
1:35 PM 34.7 °F 25.1 °F 20.5 °F 56% 29.88 in 10.0 mi West 15.0 mph 20.7 mph N/A   Overcast
1:55 PM 34.7 °F 25.1 °F 20.8 °F 57% 29.87 in 10.0 mi WSW 15.0 mph 19.6 mph N/A   Overcast
2:15 PM 35.6 °F 26.2 °F 21.6 °F 57% 29.86 in 10.0 mi West 15.0 mph 20.7 mph N/A   Overcast
2:35 PM 35.6 °F 25.5 °F 21.4 °F 56% 29.86 in 10.0 mi West 17.3 mph 24.2 mph N/A   Overcast
2:55 PM 34.9 °F 25.3 °F 22.1 °F 60% 29.86 in 10.0 mi WSW 15.0 mph 24.2 mph N/A   Overcast
3:15 PM 34.9 °F 26.6 °F 22.6 °F 61% 29.86 in 10.0 mi WSW 11.5 mph 23.0 mph N/A   Overcast
3:35 PM 35.2 °F 26.2 °F 22.5 °F 60% 29.87 in 10.0 mi West 13.8 mph 20.7 mph N/A   Overcast
3:55 PM 35.2 °F 26.2 °F 20.8 °F 56% 29.87 in 10.0 mi West 13.8 mph 20.7 mph N/A   Overcast
4:15 PM 35.6 °F 26.6 °F 21.7 °F 57% 29.87 in 10.0 mi West 13.8 mph 23.0 mph N/A   Overcast
4:35 PM 35.4 °F 25.6 °F 22.1 °F 58% 29.87 in 10.0 mi WSW 16.1 mph 19.6 mph N/A   Overcast
4:55 PM 35.4 °F 26.4 °F 22.3 °F 59% 29.87 in 10.0 mi WSW 13.8 mph 18.4 mph N/A   Overcast
5:15 PM 34.9 °F 27.1 °F 22.5 °F 61% 29.87 in 10.0 mi West 10.4 mph 18.4 mph N/A   Overcast
5:35 PM 34.9 °F 27.7 °F 23.0 °F 62% 29.88 in 10.0 mi West 9.2 mph 16.1 mph N/A   Overcast
5:55 PM 34.9 °F 25.7 °F 23.4 °F 63% 29.88 in 10.0 mi West 13.8 mph 17.3 mph N/A   Overcast
6:15 PM 34.9 °F 28.3 °F 23.7 °F 64% 29.88 in 10.0 mi West 8.1 mph - N/A   Overcast
6:35 PM 35.1 °F 26.9 °F 23.5 °F 63% 29.89 in 10.0 mi West 11.5 mph 17.3 mph N/A   Overcast
6:55 PM 35.1 °F 25.9 °F 23.9 °F 64% 29.89 in 10.0 mi West 13.8 mph 18.4 mph N/A   Overcast
7:15 PM 35.1 °F 26.9 °F 23.9 °F 64% 29.89 in 10.0 mi West 11.5 mph 16.1 mph N/A   Overcast
7:35 PM 35.2 °F 27.6 °F 24.3 °F 64% 29.89 in 10.0 mi West 10.4 mph - N/A   Overcast
7:55 PM 35.2 °F 28.1 °F 24.3 °F 64% 29.89 in 10.0 mi West 9.2 mph 16.1 mph N/A   Overcast
8:15 PM 35.1 °F 27.4 °F 24.6 °F 66% 29.89 in 10.0 mi West 10.4 mph - N/A   Overcast
8:35 PM 35.1 °F 26.9 °F 25.0 °F 67% 29.89 in 10.0 mi West 11.5 mph 16.1 mph N/A   Overcast
8:55 PM 35.2 °F 26.6 °F 25.0 °F 66% 29.88 in 10.0 mi West 12.7 mph 18.4 mph N/A   Overcast
9:15 PM 35.2 °F 27.6 °F 25.5 °F 68% 29.89 in 10.0 mi West 10.4 mph 17.3 mph N/A   Overcast
9:35 PM 35.1 °F 28.6 °F 25.7 °F 69% 29.89 in 10.0 mi West 8.1 mph - N/A   Overcast
9:55 PM 35.1 °F 27.4 °F 25.9 °F 69% 29.89 in 10.0 mi West 10.4 mph - N/A   Overcast
10:15 PM 34.9 °F 29.0 °F 26.1 °F 70% 29.90 in 10.0 mi West 6.9 mph - N/A   Overcast
10:35 PM 34.9 °F 26.6 °F 26.2 °F 71% 29.90 in 10.0 mi West 11.5 mph - N/A   Overcast
10:55 PM 34.9 °F 25.7 °F 26.4 °F 71% 29.90 in 10.0 mi West 13.8 mph 18.4 mph N/A   Overcast
11:15 PM 33.8 °F 25.3 °F 26.4 °F 74% 29.90 in 10.0 mi West 11.5 mph 16.1 mph N/A   Mostly Cloudy
11:35 PM 34.3 °F 26.5 °F 26.6 °F 73% 29.90 in 10.0 mi West 10.4 mph - N/A   Overcast
11:55 PM 34.2 °F 26.8 °F 26.8 °F 74% 29.90 in 10.0 mi West 9.2 mph - N/A   Overcast